Погода в Кросно

Польша     49°41′40″N   21°45′10″E
темп.,
°C
ветер,
м/с
пор.,
м/с
влажн.,
%
обл.,
%
осадки,
мм/ч
давл.,
гПа
погр.,
м
1 марта, пн
пн101:00+2сз5109484 0.1 1031539
04:00+2ссз4997100 0.5 1032439
07:00+2сз4795100 0.6 1033349
10:00+3ссз4686100 0.0 1034519
13:00+5сз4575100 0.1 1035750
16:00+4сз357795 0.1 1035638
19:00+1сз119061 0.1 103622
22:000зюз12920 0.0 103622
2 марта, вт
вт201:000юз11910 0.0 103721
04:000юз12900 0.0 103522
07:00+1юз12820 0.0 103528
10:00+7з35500 0.0 1033434
13:00+10зсз58460 0.0 1032678
16:00+8з410612 0.0 1031420
19:00+4з33761 0.0 103248
22:00+2з22820 0.0 103322
3 марта, ср
ср301:00+1з12860 0.0 103322
04:00+1зюз11880 0.0 103322
07:00+1юз11880 0.0 103222
10:00+6зюз11680 0.0 1032330
13:00+9юз12560 0.0 1030598
16:00+9ююв11600 0.0 102727
19:00+5ю35790 0.0 1027109
22:00+4ююз411871 0.0 1025251
4 марта, чт
чт401:00+3ююз4128939 0.0 1023303
04:00+2ююз411910 0.0 1021250
07:00+1ююз410935 0.0 1020216
10:00+6ююз587512 0.0 1018312
13:00+8юз576525 0.0 1016559
16:00+7ююз597287 0.0 1013368
19:00+5ююз6127881 0.0 1013269
22:00+6ююз598099 0.0 1013196
5 марта, пт
пт501:00+4ююз3790100 0.0 1011176
04:00+3ююз2892100 0.0 1009252
07:00+4юз2793100 1.4 1008280
10:00+4юз3889100 2.2 1008339
13:00+4юз3694100 3.5 1009386
16:00+1ссз61097100 4.1 1011441
19:00−1с6995100 5.4 1014624
22:00−2с71193100 0.9 1019837